Show Low, AZ

9:01 PM MST on December 17, 2017 (GMT -0700)
Show Low Municipal

Weather History for KSOW - March, 2013

Change the Weather History Date:

Wednesday, March 20, 2013

  Actual Average Record
Temperature  
Mean Temperature 44 °F -  
Max Temperature 59 °F 58 °F 82 °F (2004)
Min Temperature 30 °F 35 °F 8 °F (2012)
Degree Days  
Heating Degree Days 20    
Moisture  
Dew Point 22 °F    
Average Humidity 38    
Maximum Humidity 64    
Minimum Humidity 22    
Precipitation  
Precipitation 0.00 in - - ()
Sea Level Pressure  
Sea Level Pressure 30.13 in    
Wind  
Wind Speed 8 mph (SSW)    
Max Wind Speed 23 mph    
Max Gust Speed 33 mph    
Visibility 10 miles    
Events      
Averages and records for this station are not official NWS values.
T = Trace of Precipitation, MM = Missing Value Source: NWS Daily Summary

Daily Weather History Graph

Daily Weather History Graph

Search for Another Location

Airport or City:

Trip Planner

Search our weather history database for the weather conditions in past years. The results will help you decide how hot, cold, wet, or windy it might be!

Date:

Astronomy

Mar. 20, 2013 Rise Set
Actual Time 6:23 AM MST 6:31 PM MST
Civil Twilight 5:58 AM MST 6:57 PM MST
Nautical Twilight 5:29 AM MST 7:26 PM MST
Astronomical Twilight 4:59 AM MST 7:55 PM MST
Moon 12:23 PM MST (3/20) 1:51 AM MST (3/20)
Length of Visible Light 12h 58m
Length of Day
12h 08m
First Quarter, 60% of the Moon is Illuminated
Mar 20
First Quarter
Mar 27
Full
Apr 2
Last Quarter
Apr 10
New
Apr 18
First Quarter

Hourly Weather History & Observations

Time (MST) Temp. Windchill Dew Point Humidity Pressure Visibility Wind Dir Wind Speed Gust Speed Precip Events Conditions
12:15 AM 39.2 °F - 17.6 °F 42% 30.23 in 10.0 mi Calm Calm - N/A   Clear
12:35 AM 39.2 °F - 17.6 °F 42% 30.22 in 10.0 mi Calm Calm - N/A   Clear
12:55 AM 35.6 °F 32.8 °F 17.6 °F 48% 30.22 in 10.0 mi SW 3.5 mph - N/A   Clear
1:15 AM 35.6 °F 30.7 °F 17.6 °F 48% 30.22 in 10.0 mi South 5.8 mph - N/A   Clear
1:35 AM 35.6 °F 29.9 °F 17.6 °F 48% 30.22 in 10.0 mi South 6.9 mph - N/A   Clear
1:55 AM 35.6 °F 29.9 °F 17.6 °F 48% 30.22 in 10.0 mi SSE 6.9 mph - N/A   Clear
2:15 AM 35.6 °F 29.2 °F 19.4 °F 52% 30.22 in 10.0 mi South 8.1 mph - N/A   Clear
2:35 AM 35.6 °F 29.2 °F 19.4 °F 52% 30.21 in 10.0 mi South 8.1 mph - N/A   Clear
2:55 AM 37.4 °F 32.1 °F 19.4 °F 48% 30.21 in 10.0 mi South 6.9 mph - N/A   Clear
3:15 AM 35.6 °F 31.7 °F 19.4 °F 52% 30.20 in 10.0 mi South 4.6 mph - N/A   Clear
3:35 AM 35.6 °F - 19.4 °F 52% 30.20 in 10.0 mi Calm Calm - N/A   Clear
3:55 AM 37.4 °F - 19.4 °F 48% 30.20 in 10.0 mi Calm Calm - N/A   Clear
4:15 AM 32.0 °F - 21.2 °F 64% 30.21 in 10.0 mi Calm Calm - N/A   Clear
4:35 AM 33.8 °F - 21.2 °F 60% 30.22 in 10.0 mi Calm Calm - N/A   Clear
4:55 AM 35.6 °F - 19.4 °F 52% 30.21 in 10.0 mi Calm Calm - N/A   Clear
5:15 AM 30.2 °F - 19.4 °F 64% 30.21 in 10.0 mi Calm Calm - N/A   Clear
5:35 AM 33.8 °F - 19.4 °F 56% 30.20 in 10.0 mi Calm Calm - N/A   Clear
5:55 AM 35.6 °F - 21.2 °F 56% 30.20 in 10.0 mi Calm Calm - N/A   Clear
6:15 AM 33.8 °F 29.6 °F 21.2 °F 60% 30.21 in 10.0 mi South 4.6 mph - N/A   Clear
6:35 AM 35.6 °F 29.2 °F 23.0 °F 60% 30.21 in 10.0 mi South 8.1 mph - N/A   Clear
6:55 AM 37.4 °F 31.4 °F 23.0 °F 56% 30.21 in 10.0 mi South 8.1 mph - N/A   Clear
7:15 AM 37.4 °F 32.1 °F 23.0 °F 56% 30.21 in 10.0 mi SSE 6.9 mph - N/A   Clear
7:35 AM 41.0 °F 36.4 °F 23.0 °F 49% 30.20 in 10.0 mi South 6.9 mph - N/A   Clear
7:55 AM 44.6 °F 40.7 °F 24.8 °F 46% 30.20 in 10.0 mi South 6.9 mph - N/A   Clear
8:15 AM 46.4 °F 42.9 °F 24.8 °F 43% 30.20 in 10.0 mi South 6.9 mph - N/A   Clear
8:35 AM 48.2 °F - 23.0 °F 37% 30.21 in 10.0 mi South 6.9 mph - N/A   Clear
8:55 AM 50.0 °F - 23.0 °F 35% 30.20 in 10.0 mi SSW 8.1 mph - N/A   Clear
9:15 AM 53.6 °F - 21.2 °F 28% 30.20 in 10.0 mi SSW 12.7 mph 16.1 mph N/A   Clear
9:35 AM 53.6 °F - 19.4 °F 26% 30.19 in 10.0 mi South 19.6 mph 28.8 mph N/A   Partly Cloudy
9:55 AM 55.4 °F - 19.4 °F 25% 30.18 in 10.0 mi South 16.1 mph 24.2 mph N/A   Clear
10:15 AM 57.2 °F - 19.4 °F 23% 30.18 in 10.0 mi South 19.6 mph 28.8 mph N/A   Scattered Clouds
10:35 AM 57.2 °F - 19.4 °F 23% 30.17 in 10.0 mi SSW 21.9 mph 26.5 mph N/A   Partly Cloudy
10:55 AM 57.2 °F - 19.4 °F 23% 30.16 in 10.0 mi South 23.0 mph 29.9 mph N/A   Partly Cloudy
11:15 AM 57.2 °F - 21.2 °F 25% 30.15 in 10.0 mi South 20.7 mph 32.2 mph N/A   Clear
11:35 AM 59.0 °F - 21.2 °F 23% 30.15 in 10.0 mi South 20.7 mph 27.6 mph N/A   Clear
11:55 AM 59.0 °F - 21.2 °F 23% 30.15 in 10.0 mi South 19.6 mph 29.9 mph N/A   Partly Cloudy
12:15 PM 59.0 °F - 21.2 °F 23% 30.14 in 10.0 mi SSW 23.0 mph 33.4 mph N/A   Clear
12:35 PM 59.0 °F - 23.0 °F 25% 30.14 in 10.0 mi South 20.7 mph 28.8 mph N/A   Clear
12:55 PM 59.0 °F - 23.0 °F 25% 30.13 in 10.0 mi South 18.4 mph 27.6 mph N/A   Scattered Clouds
1:15 PM 59.0 °F - 23.0 °F 25% 30.12 in 10.0 mi SSW 23.0 mph 28.8 mph N/A   Mostly Cloudy
1:35 PM 59.0 °F - 21.2 °F 23% 30.12 in 10.0 mi SSW 23.0 mph 29.9 mph N/A   Scattered Clouds
1:55 PM 59.0 °F - 19.4 °F 22% 30.11 in 10.0 mi SW 20.7 mph 29.9 mph N/A   Clear
2:15 PM 59.0 °F - 21.2 °F 23% 30.10 in 10.0 mi SSW 20.7 mph 27.6 mph N/A   Clear
2:35 PM 59.0 °F - 21.2 °F 23% 30.09 in 10.0 mi South 23.0 mph 27.6 mph N/A   Clear
2:55 PM 59.0 °F - 21.2 °F 23% 30.08 in 10.0 mi SSW 13.8 mph 26.5 mph N/A   Clear
3:15 PM 59.0 °F - 19.4 °F 22% 30.07 in 10.0 mi SSW 17.3 mph 23.0 mph N/A   Clear
3:35 PM 59.0 °F - 19.4 °F 22% 30.06 in 10.0 mi SW 18.4 mph 23.0 mph N/A   Clear
3:55 PM 59.0 °F - 19.4 °F 22% 30.05 in 10.0 mi SSW 21.9 mph 28.8 mph N/A   Clear
4:15 PM 59.0 °F - 21.2 °F 23% 30.05 in 10.0 mi SSW 13.8 mph 24.2 mph N/A   Clear
4:35 PM 57.2 °F - 19.4 °F 23% 30.05 in 10.0 mi SSW 16.1 mph 28.8 mph N/A   Clear
4:55 PM 57.2 °F - 19.4 °F 23% 30.06 in 10.0 mi SW 18.4 mph 23.0 mph N/A   Clear
5:15 PM 57.2 °F - 19.4 °F 23% 30.06 in 10.0 mi SW 16.1 mph 21.9 mph N/A   Clear
5:35 PM 55.4 °F - 19.4 °F 25% 30.06 in 10.0 mi SW 17.3 mph - N/A   Clear
5:55 PM 55.4 °F - 23.0 °F 29% 30.06 in 10.0 mi SW 15.0 mph - N/A   Clear
6:15 PM 53.6 °F - 24.8 °F 33% 30.06 in 10.0 mi SW 11.5 mph - N/A   Clear
6:35 PM 53.6 °F - 24.8 °F 33% 30.06 in 10.0 mi SW 11.5 mph 16.1 mph N/A   Clear
6:55 PM 51.8 °F - 24.8 °F 35% 30.06 in 10.0 mi SSW 9.2 mph - N/A   Clear
7:15 PM 51.8 °F - 24.8 °F 35% 30.06 in 10.0 mi SW 10.4 mph - N/A   Clear
7:35 PM 50.0 °F - 26.6 °F 40% 30.07 in 10.0 mi SW 9.2 mph - N/A   Clear
7:55 PM 50.0 °F - 26.6 °F 40% 30.06 in 10.0 mi SSW 12.7 mph - N/A   Clear
8:15 PM 50.0 °F - 26.6 °F 40% 30.06 in 10.0 mi SSW 9.2 mph - N/A   Clear
8:35 PM 50.0 °F - 24.8 °F 37% 30.06 in 10.0 mi SSW 9.2 mph - N/A   Clear
8:55 PM 48.2 °F - 24.8 °F 40% 30.06 in 10.0 mi SSW 9.2 mph - N/A   Clear
9:15 PM 48.2 °F - 23.0 °F 37% 30.06 in 10.0 mi SSW 9.2 mph - N/A   Clear
9:35 PM 48.2 °F - 24.8 °F 40% 30.05 in 10.0 mi SSW 9.2 mph - N/A   Clear
9:55 PM 48.2 °F - 24.8 °F 40% 30.05 in 10.0 mi SSW 8.1 mph - N/A   Clear
10:15 PM 46.4 °F 42.4 °F 24.8 °F 43% 30.05 in 10.0 mi SSW 8.1 mph - N/A   Clear
10:35 PM 46.4 °F 40.7 °F 24.8 °F 43% 30.03 in 10.0 mi South 12.7 mph - N/A   Clear
10:55 PM 46.4 °F 40.1 °F 24.8 °F 43% 30.02 in 10.0 mi South 15.0 mph - N/A   Clear
11:15 PM 46.4 °F 40.1 °F 24.8 °F 43% 30.01 in 10.0 mi South 15.0 mph - N/A   Clear
11:35 PM 46.4 °F 40.4 °F 24.8 °F 43% 30.01 in 10.0 mi South 13.8 mph 20.7 mph N/A   Clear
11:55 PM 46.4 °F 40.4 °F 24.8 °F 43% 29.99 in 10.0 mi South 13.8 mph - N/A   Clear